Wind_Speed
51 51 51 51 52 52 52 53 53 53 54 54 54 54 54 54 55 55 55 55 55 56 56 57 58 58 58 59 59 59 59 59 60 60 61 62 62 62 62 62 61 60 59 59 58 59 59 61 62 63 63 64 65 65 65 65 65 65 65 65 65 66 65 64 62 61 62 64 67 69 69 67 65 64 63 61 59 58 58 59 60 61 62 62 61 60
50 50 50 51 51 52 52 53 53 53 54 55 55 55 56 56 56 57 57 57 57 57 58 58 59 59 60 60 60 60 59 59 59 59 59 60 61 62 63 63 63 62 61 61 60 60 60 61 62 63 64 64 65 66 66 66 66 66 66 66 66 67 67 66 65 63 63 63 65 68 70 71 71 70 68 65 61 59 58 58 60 61 62 63 62 62
49 49 50 50 51 52 52 53 54 54 55 55 56 56 57 57 58 58 58 59 59 59 59 60 60 61 61 62 62 62 61 61 60 59 59 59 60 61 62 63 64 64 63 63 62 62 61 61 62 62 63 64 65 66 67 67 67 67 67 67 67 67 68 68 68 66 65 64 64 66 68 70 71 70 69 67 64 60 57 57 58 60 61 62 63 63
48 49 50 51 52 52 53 54 54 55 56 56 57 57 58 58 59 59 60 60 60 60 60 60 61 61 62 62 63 63 62 62 62 61 61 60 60 60 60 62 63 64 65 64 64 63 63 63 63 63 63 64 65 66 67 67 68 68 68 68 68 68 68 68 69 68 67 66 64 64 65 67 68 69 69 69 67 62 57 55 57 58 59 61 62 64
49 50 51 52 52 53 54 55 55 56 56 57 57 58 58 59 59 60 60 60 59 59 60 60 60 60 60 61 62 62 62 62 62 62 62 62 61 60 60 60 61 63 64 65 65 65 64 64 64 64 64 64 65 65 66 67 68 68 68 68 68 68 68 68 68 69 68 68 66 64 64 65 67 68 69 70 69 66 60 56 56 57 58 59 61 62
49 50 51 52 53 54 55 55 55 56 56 57 57 57 58 58 58 58 58 58 57 57 57 57 57 57 57 58 58 59 59 59 60 60 61 61 61 61 61 60 60 61 63 64 66 66 66 66 65 65 65 65 65 65 66 66 67 67 68 68 68 68 68 68 68 68 68 68 67 66 65 64 66 67 69 70 70 68 64 59 57 57 58 58 59 60
50 51 52 53 54 54 55 55 55 55 55 55 56 56 56 55 55 55 54 54 54 54 54 54 54 54 54 54 54 53 54 54 55 56 57 58 58 59 60 60 60 60 61 63 65 66 67 67 67 67 66 66 66 65 66 66 66 66 67 67 67 68 68 68 68 68 68 68 67 67 66 65 65 67 68 70 70 69 67 63 60 59 59 59 59 59
51 52 52 53 54 54 54 54 54 53 53 53 53 53 53 53 52 52 52 52 52 52 52 53 53 52 51 51 50 50 50 50 51 52 53 53 54 55 57 58 59 59 60 61 63 65 67 68 69 69 68 67 67 66 66 66 66 66 66 66 66 66 67 68 68 68 67 67 67 67 66 65 65 66 68 69 70 69 68 66 62 60 60 60 60 60
51 52 52 53 53 53 54 53 52 51 51 51 51 51 51 51 51 51 51 51 52 52 52 53 53 52 51 50 50 49 49 49 49 50 50 51 52 52 53 54 56 57 59 60 61 63 66 68 70 70 70 69 68 67 66 66 66 66 65 65 65 65 66 67 67 67 67 67 66 66 66 65 65 66 67 68 69 69 68 66 64 61 60 60 61 61
51 51 52 53 53 53 52 52 51 50 49 49 50 50 51 51 52 53 53 53 53 53 54 54 54 54 53 52 51 51 51 51 51 51 51 51 51 52 52 52 53 55 57 58 60 62 64 66 69 71 71 71 70 69 68 67 66 66 66 65 65 64 65 65 66 67 67 67 66 66 65 65 65 65 66 68 69 69 67 66 65 62 60 59 60 60
51 51 52 52 52 52 51 50 50 49 49 49 50 51 51 52 54 55 56 56 56 55 55 55 55 56 56 55 54 54 54 54 54 53 53 52 52 52 52 52 52 53 54 56 58 60 62 64 67 69 71 72 72 70 69 67 66 66 66 65 65 64 64 65 65 66 67 67 66 66 65 65 64 65 66 67 69 69 68 67 66 64 62 60 59 60
51 51 51 52 51 51 50 50 49 49 49 50 51 52 53 54 54 56 57 58 58 57 57 57 57 56 56 56 57 57 57 57 57 56 55 54 54 53 53 53 53 53 53 54 56 59 61 62 64 67 70 72 72 72 70 68 67 66 66 65 65 64 64 64 65 65 66 66 66 66 65 65 64 64 65 66 68 69 70 69 68 67 65 62 61 60
50 51 51 51 51 50 50 50 50 50 50 51 52 53 54 55 56 56 57 58 58 58 57 57 57 57 56 56 57 58 58 59 59 58 58 56 55 54 53 53 53 53 53 53 54 57 59 61 62 65 67 70 72 72 71 69 68 66 65 65 65 64 64 63 64 65 66 66 66 66 66 65 64 64 64 65 67 69 70 69 69 69 68 65 63 61
50 51 51 51 51 50 50 50 50 51 52 52 53 54 55 56 57 57 57 58 58 57 56 57 57 57 56 56 56 57 58 59 60 60 59 58 56 55 54 53 53 53 53 53 53 55 57 59 60 62 64 67 69 71 71 70 68 66 65 65 64 64 64 63 63 64 65 66 66 66 66 66 65 64 64 64 66 67 68 69 69 70 69 67 64 62
50 50 51 51 51 50 50 50 51 52 53 53 54 55 56 57 57 57 57 57 57 56 56 56 57 57 56 56 56 56 58 59 60 61 60 59 58 56 54 53 53 53 53 52 53 54 55 57 58 60 62 64 66 68 69 69 68 66 65 64 63 63 63 63 63 63 64 65 66 67 67 66 65 64 64 64 65 66 67 68 68 68 69 67 65 62
50 50 51 51 51 51 51 51 52 53 54 55 55 56 57 57 57 57 56 56 56 56 56 56 57 57 57 56 55 56 57 59 60 61 61 60 59 57 55 54 54 54 53 52 52 53 54 55 57 58 59 60 62 63 65 66 66 66 64 63 62 62 62 62 62 62 63 64 65 66 67 66 66 65 64 64 65 66 67 68 67 66 66 65 64 62
50 50 51 51 51 52 52 52 53 54 55 56 56 57 57 57 57 57 56 56 56 56 56 57 58 59 59 58 56 56 57 58 60 61 61 61 60 58 56 55 55 54 53 53 52 52 52 53 54 56 57 58 59 60 61 62 63 63 63 62 62 62 61 62 62 62 62 63 64 66 66 67 66 65 65 65 65 66 67 68 67 64 63 63 62 61
50 50 51 51 52 52 53 53 54 55 56 56 57 57 57 57 56 56 56 56 56 56 57 57 58 59 60 60 59 57 57 58 59 61 61 61 61 60 57 56 56 55 54 53 52 52 52 52 53 54 54 55 56 57 58 60 61 61 61 61 61 61 61 61 61 61 61 62 63 64 66 67 67 66 66 66 66 66 67 68 67 64 62 62 61 59
50 50 50 51 52 53 53 54 54 55 56 56 57 57 58 57 56 56 56 56 56 56 57 58 59 59 60 61 60 59 58 58 59 60 60 61 61 60 58 57 56 56 55 54 53 52 51 52 52 52 53 53 53 54 55 57 58 59 60 60 60 60 60 60 61 61 61 61 62 63 65 66 67 67 67 67 67 67 68 69 68 66 64 63 62 59
50 50 50 51 52 53 54 54 54 55 55 56 57 57 58 57 57 56 56 56 56 56 57 58 59 60 60 61 61 60 59 58 58 59 59 59 59 59 57 57 56 56 55 54 53 52 51 51 51 52 52 52 52 52 52 53 55 57 58 59 59 59 59 59 60 61 61 62 62 63 64 66 66 67 67 67 68 68 68 69 69 67 66 66 64 60
50 50 50 51 52 54 54 54 54 54 55 56 57 57 58 57 57 57 56 56 56 57 58 59 60 60 61 62 62 61 59 58 57 57 57 57 57 57 56 55 55 56 56 54 52 51 51 51 51 51 51 51 50 50 50 51 53 55 57 58 58 59 59 59 60 60 61 61 61 62 64 65 66 67 67 68 68 68 69 69 69 69 68 68 65 60
49 50 50 51 52 53 54 55 55 55 55 56 57 57 57 57 57 57 57 57 57 58 59 59 60 61 61 62 62 61 60 58 57 56 56 56 56 55 53 52 53 54 55 54 52 51 50 50 50 50 50 50 49 49 49 49 51 53 55 56 57 58 58 58 59 60 60 61 61 62 63 64 65 66 67 67 68 68 69 69 69 69 70 69 65 60
49 50 50 51 52 53 54 55 55 55 55 56 57 57 57 57 57 57 58 58 58 59 59 60 61 61 62 62 62 61 59 58 56 55 55 56 55 53 50 49 50 52 54 53 52 50 50 50 50 50 50 49 49 48 48 48 50 51 53 54 56 57 57 57 58 58 60 61 61 61 61 62 63 64 66 67 68 68 69 69 69 70 70 70 66 63
49 50 50 51 52 53 54 55 56 56 56 57 57 57 57 57 58 58 58 59 59 60 61 62 62 63 63 63 62 61 59 57 55 54 54 55 55 53 50 48 48 50 51 51 50 50 50 49 49 49 49 49 48 47 47 48 49 50 52 53 54 55 55 56 56 57 59 60 61 60 60 60 61 63 64 66 67 68 68 69 69 70 70 70 69 67
49 50 51 51 52 53 54 55 56 56 57 57 58 58 58 58 58 59 59 60 60 61 62 63 64 65 65 64 64 62 59 56 54 53 53 55 55 53 51 48 48 49 49 48 48 48 49 49 49 48 48 48 47 47 47 47 48 50 51 52 53 53 54 54 54 56 58 60 61 60 59 59 59 61 63 64 66 67 68 69 69 69 70 70 70 69
49 50 51 52 53 54 55 56 56 57 57 57 58 58 57 58 58 59 60 60 60 61 61 63 64 65 65 65 64 62 60 56 53 52 52 53 54 53 51 49 49 49 48 46 46 46 47 48 48 48 47 47 46 46 46 46 48 49 51 52 52 52 52 52 53 54 56 59 61 61 59 58 58 59 61 63 65 66 67 68 68 69 69 69 69 69
49 50 51 52 53 54 55 56 56 57 57 57 57 57 57 57 58 60 60 60 60 60 61 62 64 65 65 64 63 61 58 55 53 51 50 50 51 52 51 50 49 49 49 46 44 44 45 46 47 46 46 46 45 45 45 45 47 49 51 52 52 52 52 52 51 52 54 57 60 61 60 59 58 59 60 62 64 65 66 67 68 68 69 69 69 69
50 51 52 53 54 55 55 56 57 57 57 57 57 56 56 57 58 60 61 61 60 61 62 63 64 64 64 64 62 60 57 54 52 49 47 48 49 50 48 47 48 48 48 47 45 43 43 44 44 44 44 45 45 44 44 45 46 48 50 52 53 53 53 53 52 51 52 54 57 60 60 59 59 59 60 61 63 65 66 66 67 68 68 69 69 68
50 51 52 53 54 55 56 56 57 57 57 57 57 56 56 57 58 59 60 60 61 61 62 63 63 64 64 63 62 60 57 54 51 47 46 47 48 48 46 45 45 45 46 46 46 45 44 43 43 42 42 43 43 43 43 43 44 46 48 51 53 54 55 55 54 52 51 52 54 57 59 59 59 59 60 61 63 64 65 66 66 67 67 68 68 68
51 52 53 53 54 55 56 56 57 57 57 57 56 56 56 57 58 59 59 60 60 60 61 62 63 62 62 62 61 60 58 54 50 46 45 46 48 47 44 43 43 43 42 43 44 45 46 45 43 42 42 42 42 42 42 42 42 44 46 49 52 54 55 56 55 53 50 49 51 55 57 58 58 58 59 60 62 63 64 65 65 66 66 68 68 68
51 52 53 54 55 55 56 56 57 57 57 56 56 56 57 57 57 58 58 59 59 59 60 61 61 61 60 59 59 59 58 54 49 46 45 46 47 47 44 43 42 41 40 40 41 44 47 46 45 43 43 42 42 41 40 40 41 42 44 47 51 54 55 56 55 53 50 48 49 52 55 57 57 57 57 58 60 62 63 64 64 65 66 67 68 69
52 53 54 54 55 56 56 56 56 56 56 56 56 57 57 57 57 57 57 57 58 58 59 59 60 59 58 57 57 57 57 53 49 45 44 45 47 46 44 44 43 42 40 40 41 43 46 47 46 45 44 43 43 41 40 40 39 40 42 45 49 52 54 55 54 52 50 48 48 50 53 55 56 56 56 57 59 61 62 63 63 64 65 66 68 69
53 53 54 55 56 56 56 56 56 56 56 56 56 56 56 56 57 56 57 57 57 57 58 58 57 57 57 56 56 56 55 52 48 45 44 45 46 46 44 44 43 42 41 41 41 42 44 46 46 46 45 44 44 43 41 40 39 39 40 43 46 50 52 54 53 52 50 48 47 48 51 54 55 55 55 56 58 60 61 62 63 64 65 66 67 68
53 54 55 55 56 56 56 56 56 56 56 56 56 56 56 56 56 56 56 56 56 56 56 56 55 54 54 54 55 55 54 52 48 45 44 45 45 44 43 43 43 43 42 42 41 42 43 44 44 45 45 44 44 43 42 40 38 38 38 40 44 47 50 52 52 51 49 47 47 48 50 53 54 54 55 55 57 59 60 61 62 63 64 65 66 66
54 54 55 55 55 56 55 55 55 55 56 56 56 55 55 55 55 55 55 55 56 56 55 54 53 52 51 51 52 53 53 51 48 45 45 46 44 42 41 42 42 42 42 42 42 42 43 43 43 43 43 43 43 42 41 39 38 37 37 39 41 45 47 49 50 50 49 47 46 47 50 53 54 54 54 54 56 57 59 60 61 62 63 64 64 64
54 54 54 55 55 55 55 55 55 55 55 55 55 55 55 54 54 54 54 55 55 55 54 53 51 50 49 49 50 51 51 50 47 46 45 45 44 42 42 42 41 41 42 42 42 42 43 43 43 42 42 43 43 42 40 38 37 36 36 38 40 43 45 47 48 48 47 46 46 47 49 52 53 53 53 53 54 56 58 59 60 61 62 62 61 61
53 53 54 54 54 54 54 55 55 55 55 55 55 55 54 54 54 54 54 54 54 53 52 51 49 48 47 47 48 49 50 49 47 46 45 45 44 44 43 43 42 41 42 42 42 42 42 42 43 43 43 43 43 42 40 38 36 35 35 37 39 42 45 46 46 46 46 45 45 46 48 51 52 52 51 52 53 55 56 58 59 60 60 59 59 58
52 52 52 53 53 53 54 54 54 55 55 55 55 54 54 53 53 53 53 53 53 52 50 49 47 46 45 45 46 46 47 47 47 46 46 45 45 44 44 43 42 42 42 43 42 42 41 41 41 42 43 44 43 42 40 38 36 35 35 36 39 41 44 45 46 46 45 44 44 45 48 50 51 50 50 51 52 54 55 57 58 58 58 57 57 57
51 51 51 52 52 53 53 53 54 54 54 54 54 53 53 53 53 53 53 52 52 50 49 47 45 44 43 43 43 44 44 45 46 46 46 45 45 44 44 43 42 41 42 42 43 43 42 42 41 41 41 42 43 42 41 38 36 35 35 36 38 41 43 45 46 46 45 44 44 45 48 50 51 50 49 51 53 54 56 57 58 57 57 56 56 57
49 50 50 51 51 52 52 53 53 53 53 53 53 53 52 52 53 53 53 52 51 49 47 45 44 43 43 42 42 42 42 42 43 44 44 45 44 44 44 43 41 40 40 41 43 44 44 44 43 41 41 41 41 42 41 39 36 34 34 35 37 40 42 44 45 46 46 43 43 46 50 52 52 50 49 51 53 55 56 57 57 57 57 57 57 57
49 49 50 50 51 51 51 52 52 53 53 53 53 52 52 52 53 53 53 52 50 48 46 44 43 43 42 42 41 41 40 40 41 41 42 43 43 43 43 42 41 39 38 39 41 44 45 46 45 44 42 41 41 41 41 39 36 34 34 35 38 40 42 44 45 46 46 43 44 47 53 55 53 50 47 49 52 55 56 57 57 57 56 57 57 57
48 49 49 50 50 51 52 52 52 52 52 52 52 52 52 52 52 53 52 51 49 47 45 43 42 42 42 42 41 40 39 39 39 39 39 40 41 41 42 41 40 38 37 38 40 42 45 47 47 47 45 43 42 42 41 39 36 34 34 35 38 40 42 44 45 46 46 45 45 48 55 57 52 45 42 45 49 53 55 55 55 55 55 56 55 55
48 48 49 50 50 51 52 52 52 52 52 52 52 52 52 52 52 52 51 50 48 46 44 42 41 41 41 41 41 40 39 37 37 37 37 38 38 39 40 39 38 37 36 37 38 41 44 46 48 48 47 45 44 43 42 39 36 34 34 35 37 39 40 43 45 47 47 46 47 51 57 57 50 41 36 39 44 49 52 53 54 54 54 53 53 52
48 48 49 50 51 51 52 52 52 52 52 52 51 51 51 51 51 51 50 48 47 45 43 41 40 40 40 40 40 39 38 37 36 35 35 35 36 36 37 37 37 36 35 36 37 39 42 45 47 47 46 45 44 44 42 39 36 34 33 35 37 39 41 43 45 47 48 46 47 50 56 55 47 36 31 33 39 45 48 51 52 52 51 51 50 49
47 48 49 50 51 51 52 52 52 52 52 51 51 51 51 51 51 50 49 47 46 44 42 40 39 39 39 39 39 38 38 38 37 35 34 33 33 33 34 35 35 34 34 34 36 38 40 42 44 45 45 44 44 43 42 39 37 35 34 34 37 40 43 44 45 47 48 47 47 50 54 52 44 35 30 31 36 42 46 48 49 49 49 49 49 49
47 48 49 50 51 51 51 52 52 52 51 51 51 51 51 51 50 49 48 46 44 43 41 39 38 37 37 37 37 37 36 36 36 36 34 33 32 31 31 32 32 32 32 33 34 36 39 40 42 42 43 43 42 41 40 39 37 35 34 34 36 40 43 44 44 45 47 47 48 50 53 51 44 35 30 31 35 40 46 48 48 48 48 48 49 49
47 48 49 50 51 51 51 51 51 51 51 51 51 51 51 51 50 49 47 45 43 41 40 38 37 36 36 35 35 34 34 34 34 34 33 33 31 30 30 29 29 30 30 31 32 35 37 39 40 41 41 41 41 40 38 37 37 35 34 34 36 39 42 43 43 43 45 48 50 52 54 51 43 35 30 32 36 41 46 48 48 48 48 48 49 49
47 48 49 50 51 51 51 51 51 50 51 51 51 51 51 50 49 48 46 44 42 40 39 38 37 36 35 34 33 32 31 31 32 32 32 31 31 30 28 28 27 27 28 29 31 33 36 38 39 40 39 39 38 37 36 36 36 35 34 34 36 39 41 42 41 42 45 50 53 54 53 49 41 33 30 32 36 40 45 48 49 48 48 48 48 47
47 48 49 50 51 51 51 51 50 50 50 51 51 51 51 50 49 47 45 43 41 40 38 37 36 35 34 33 32 30 29 29 30 30 30 29 29 28 27 26 25 25 26 27 30 32 35 37 38 38 37 36 36 36 35 35 35 34 34 35 36 39 40 40 40 41 45 50 53 53 50 44 37 31 30 34 36 39 44 48 49 50 49 47 46 46
47 48 49 50 50 51 51 50 50 50 50 51 51 51 51 50 49 47 45 43 41 40 38 37 36 35 34 32 31 29 28 28 28 28 28 27 26 26 25 24 24 24 24 26 28 31 33 35 35 35 34 33 33 34 34 33 33 34 34 35 37 38 39 39 39 40 44 48 50 50 46 39 32 29 31 35 38 40 43 46 48 49 47 46 45 45
47 48 49 50 50 50 50 50 50 50 50 51 51 52 51 51 49 47 45 43 41 40 38 37 36 34 33 32 30 29 27 26 26 25 25 24 24 23 23 23 22 23 23 25 27 29 31 33 33 33 32 31 31 32 32 32 33 34 35 36 37 37 38 38 38 40 42 45 47 45 40 34 29 28 32 36 40 42 44 46 47 47 45 45 45 45
Wind_Direction
298 298 298 298 298 297 297 297 297 296 296 295 295 295 294 294 293 292 292 291 291 290 289 288 287 286 285 284 283 282 280 279 277 276 274 273 272 270 269 267 264 261 258 255 253 250 248 247 246 245 245 245 245 245 245 245 245 245 244 243 243 243 243 243 242 240 238 236 234 234 235 236 237 238 239 239 238 236 234 233 232 231 232 232 232 232
298 298 298 298 298 298 297 297 297 297 297 296 296 296 295 295 294 293 293 292 292 291 290 289 288 287 286 285 284 283 282 280 279 277 275 273 272 270 269 267 265 263 260 257 254 251 249 247 245 244 243 243 244 244 244 244 244 244 244 244 243 243 243 243 243 242 240 237 236 235 234 235 236 236 237 237 237 236 235 234 233 232 232 232 232 232
299 298 298 298 298 298 298 297 297 297 297 297 297 296 296 295 295 294 293 293 292 291 290 290 289 288 287 286 285 284 283 282 280 278 276 274 272 270 268 267 265 263 261 258 255 253 250 248 246 244 242 242 242 242 243 243 243 244 244 244 243 243 243 243 244 243 242 240 237 236 235 235 235 235 235 235 235 235 235 234 233 233 233 233 232 232
299 299 298 298 298 297 298 297 297 297 297 297 297 296 296 295 295 294 293 293 292 291 290 289 288 288 287 286 285 284 283 282 281 280 278 276 274 271 269 267 265 263 261 259 257 254 251 249 247 245 242 241 241 241 241 241 242 242 243 243 243 243 243 243 244 244 244 242 240 238 236 235 234 233 233 233 233 234 234 233 233 233 234 234 233 232
299 298 298 298 298 297 297 297 297 297 297 297 297 297 296 296 295 294 294 293 292 291 290 289 288 288 287 286 285 284 283 283 282 280 279 278 276 274 271 268 266 263 261 259 257 255 252 250 248 246 244 242 240 239 239 240 240 241 242 242 243 243 243 243 244 244 244 244 242 240 238 236 234 233 232 231 232 233 234 234 233 232 231 232 233 233
299 298 298 298 298 297 297 297 298 298 298 298 298 297 297 296 296 296 295 295 294 293 292 291 290 289 288 287 286 286 285 284 283 281 280 279 277 276 273 271 268 265 262 260 258 256 253 251 249 247 245 243 241 239 239 238 238 239 240 241 241 242 242 243 243 243 244 244 243 242 240 238 235 233 232 231 231 232 233 234 233 231 229 230 231 233
298 298 298 298 298 298 298 298 299 299 300 300 299 298 298 298 298 298 298 297 296 295 294 293 292 290 290 289 288 288 287 286 285 284 283 281 280 278 276 273 271 268 264 261 258 256 254 251 249 247 246 244 242 240 239 238 237 238 238 239 240 240 241 241 242 243 243 243 243 243 242 240 237 235 232 231 231 231 232 233 232 231 229 227 228 230
299 299 299 299 299 298 299 299 300 301 302 302 301 301 300 300 300 300 299 299 298 297 296 295 294 292 291 291 290 290 290 289 289 288 287 286 284 282 279 276 273 270 267 263 260 257 254 252 250 248 246 245 243 242 240 238 237 237 237 237 238 238 239 240 241 241 242 242 242 242 242 241 239 237 234 232 230 230 230 230 231 230 228 227 227 229
300 300 299 299 300 300 300 301 302 303 304 304 304 304 303 303 302 301 301 300 299 299 298 297 296 295 294 293 293 293 292 291 291 291 290 289 288 286 284 280 277 273 269 266 262 258 255 252 250 248 247 245 244 243 241 240 238 237 236 236 236 237 237 238 239 239 240 240 241 241 241 241 240 238 235 232 230 229 228 228 229 229 229 227 228 229
301 301 301 301 301 302 303 304 305 305 306 306 306 306 306 305 305 304 302 301 300 300 300 299 299 298 296 296 295 294 294 293 292 291 290 290 289 288 287 284 281 277 272 268 264 260 257 254 251 249 247 246 244 243 242 241 239 238 237 236 236 236 236 236 237 237 238 238 239 239 240 240 240 238 236 233 231 229 228 228 228 229 229 229 229 229
302 303 303 303 304 304 306 307 307 308 308 307 307 307 307 307 307 306 304 303 302 302 301 300 300 299 298 297 296 296 295 294 292 291 290 288 287 287 286 285 283 280 276 271 266 262 259 255 252 250 248 246 245 244 243 242 241 239 238 237 236 235 235 235 235 235 236 236 237 237 237 238 238 238 237 234 232 229 229 228 229 229 229 229 230 230
305 305 305 305 306 307 308 309 309 309 309 309 308 308 308 307 307 306 305 304 303 302 301 300 299 299 298 298 297 296 296 294 293 291 290 288 286 285 284 283 282 281 278 274 268 264 260 257 254 251 249 247 245 244 243 242 241 240 239 238 236 235 235 234 234 234 234 234 235 235 235 236 236 236 236 235 233 230 229 229 229 229 229 229 229 230
306 307 307 307 308 308 309 310 310 309 309 309 309 308 307 307 306 305 304 303 303 302 301 300 299 298 298 297 297 297 296 295 293 292 290 288 286 284 282 281 280 279 278 275 271 266 262 258 255 253 250 248 246 245 244 242 242 241 240 239 237 236 235 234 233 233 233 233 233 233 233 234 234 234 234 234 233 231 230 230 230 230 229 229 229 229
308 308 308 308 309 309 310 310 310 309 309 309 308 308 307 306 305 304 304 303 302 302 301 301 299 298 298 298 297 297 296 295 293 292 290 288 286 284 282 280 279 278 277 276 273 269 264 260 257 254 251 249 247 246 244 243 242 241 241 239 238 237 235 234 233 233 232 232 232 232 232 232 232 232 232 232 231 230 229 229 229 229 228 228 229 229
308 308 308 309 309 310 310 310 309 308 308 308 308 307 306 305 305 305 305 304 303 303 302 301 300 299 299 298 298 297 296 295 293 291 290 288 286 284 282 280 278 276 275 275 273 270 266 262 258 255 253 250 249 247 246 244 243 242 241 240 239 238 236 235 233 232 232 231 231 231 231 231 230 230 230 230 229 229 228 228 227 226 226 227 227 227
309 309 309 309 309 310 310 309 309 308 308 308 307 307 306 306 306 306 306 305 305 304 304 303 302 301 300 300 299 299 297 295 294 292 290 288 286 284 283 281 278 276 274 273 272 271 268 264 260 257 254 251 249 247 246 245 243 242 240 240 239 238 236 235 233 232 231 231 230 230 230 230 229 229 228 228 227 227 227 227 226 225 223 224 225 225
308 308 308 309 309 309 309 308 308 308 308 308 307 307 307 307 307 307 306 306 306 306 305 305 304 304 302 302 301 300 298 296 294 292 290 288 286 284 282 281 278 276 274 272 271 270 268 265 261 258 255 252 250 247 246 244 243 241 240 239 238 237 236 235 233 232 231 230 230 229 229 229 228 228 227 226 226 226 226 227 226 224 221 221 222 223
307 307 308 308 308 308 308 308 308 308 308 308 308 307 307 307 307 307 307 306 306 306 306 306 305 304 304 303 302 301 299 296 294 292 290 287 285 283 281 279 277 276 274 271 270 269 268 265 262 259 256 254 251 248 246 244 242 241 239 237 236 235 234 234 233 232 230 229 229 229 228 228 227 227 226 225 224 224 225 226 226 224 221 220 221 223
306 307 307 307 307 307 307 307 308 308 308 309 308 308 308 307 307 307 306 306 306 306 305 305 304 304 303 303 303 302 299 296 294 291 289 287 285 283 281 279 276 275 273 271 269 268 267 265 262 259 256 254 251 249 246 244 242 240 238 237 235 234 233 232 231 231 230 229 228 228 227 227 227 226 225 224 224 223 224 225 225 225 223 222 222 223
305 306 306 307 307 307 306 307 308 308 309 309 309 308 308 308 307 306 306 305 305 305 304 304 303 303 303 303 302 301 300 297 294 291 289 287 285 282 281 279 276 274 272 270 268 268 267 266 263 260 256 253 251 249 246 244 242 240 238 237 235 233 232 231 230 229 229 228 227 227 226 226 226 225 224 224 223 223 223 223 224 224 223 222 222 222
304 305 306 306 306 306 306 307 308 308 309 309 309 308 308 308 307 306 305 305 304 303 303 303 303 303 304 303 302 301 300 297 294 292 290 287 285 282 280 278 277 275 272 270 268 267 266 266 264 261 257 253 250 248 246 243 240 239 238 236 235 233 232 230 229 228 227 227 227 226 225 225 225 225 224 223 223 223 222 223 223 223 223 223 223 222
303 304 305 305 306 306 307 307 308 309 309 309 309 309 308 307 306 305 304 304 303 302 302 302 303 303 303 302 302 301 300 298 296 294 292 288 285 282 280 279 277 275 273 270 268 266 266 265 264 262 258 254 250 247 244 242 239 238 236 235 234 233 232 231 229 228 227 226 225 225 224 225 225 224 224 223 223 222 222 222 223 223 224 225 225 224
302 303 305 305 306 307 308 309 309 310 310 310 309 308 308 307 306 304 304 303 302 302 302 302 302 302 302 302 302 302 301 299 297 295 293 290 287 283 281 279 277 275 273 270 269 267 266 265 264 263 260 255 250 246 243 241 238 236 235 234 233 232 232 231 230 229 228 226 225 223 223 223 224 224 224 223 223 222 222 222 222 223 224 226 227 227
302 304 305 306 307 308 309 310 310 310 310 310 309 308 308 307 306 304 303 303 302 302 302 303 303 303 303 303 303 302 301 300 298 296 294 292 289 287 284 281 279 276 272 270 269 267 266 265 264 263 261 257 251 246 242 240 237 235 234 233 232 232 231 231 230 230 229 227 225 222 221 222 223 224 224 223 223 222 222 222 222 222 223 224 225 226
303 304 306 307 308 309 310 310 311 311 311 310 310 309 308 307 306 305 304 303 303 303 304 304 304 303 304 304 303 303 302 301 298 296 293 292 291 289 287 284 281 278 274 270 268 267 266 265 264 264 262 259 253 248 243 239 236 234 232 231 231 230 230 230 230 230 228 227 224 222 220 220 221 223 224 223 223 222 222 221 222 222 222 223 224 224
303 305 306 308 309 310 310 311 311 311 311 311 311 310 309 307 306 304 303 303 304 304 304 304 303 303 304 304 303 303 302 301 298 295 292 291 291 290 288 286 284 282 278 273 269 267 266 265 264 264 263 261 256 250 244 239 236 233 231 230 229 229 229 229 229 229 228 227 224 221 218 218 219 221 223 223 223 222 221 221 221 221 222 222 223 223
303 305 307 308 309 310 311 311 311 312 312 311 311 310 308 306 305 303 303 303 303 303 302 302 302 302 303 302 302 301 301 299 296 293 292 290 288 287 287 286 286 285 282 278 273 269 267 265 264 264 263 262 258 252 246 240 236 233 231 229 228 227 227 227 227 227 227 227 225 222 218 216 217 220 222 222 222 222 221 221 221 221 222 222 223 223
304 305 307 308 310 311 311 312 312 312 312 311 310 309 307 305 304 302 302 303 302 302 301 301 301 302 302 302 301 300 299 296 294 293 291 288 285 284 283 283 283 282 282 281 277 273 269 267 265 264 264 263 260 255 248 242 236 233 230 228 227 226 226 226 226 226 227 226 225 223 220 217 217 218 220 221 221 221 221 220 220 221 221 222 223 222
304 305 307 309 310 311 312 312 312 312 312 311 310 308 306 304 302 301 302 302 302 301 301 302 302 302 302 302 301 300 298 296 295 293 291 287 284 282 281 280 278 278 278 279 278 277 273 270 268 267 266 265 262 257 251 244 237 233 230 228 227 226 225 225 226 226 226 226 225 224 222 219 218 218 219 220 220 220 220 220 220 220 221 222 223 222
305 306 308 309 310 311 312 312 312 311 311 310 309 307 305 303 302 301 301 301 301 302 302 303 303 303 302 301 300 298 297 297 296 294 291 287 285 283 282 280 277 275 274 275 276 276 275 273 271 270 269 267 264 260 253 246 239 233 230 228 226 226 225 225 225 225 225 225 224 224 223 221 220 219 219 220 220 220 219 219 220 220 221 222 222 222
306 307 309 310 311 311 311 311 311 311 310 309 307 306 304 303 302 302 302 302 302 303 303 304 303 303 302 299 297 295 296 297 296 294 290 285 283 283 282 280 277 274 271 269 269 270 271 271 270 270 270 269 267 262 256 248 240 234 229 227 226 226 225 225 225 224 224 224 223 223 223 222 221 220 220 220 220 220 219 219 219 220 221 222 222 222
307 308 309 310 311 311 311 311 310 309 309 308 307 306 305 304 304 303 303 304 304 304 304 304 304 302 301 298 294 293 294 295 295 292 287 283 281 281 281 279 277 274 270 267 265 264 266 266 266 266 267 267 267 264 258 251 242 235 230 227 226 225 225 225 224 224 223 223 222 222 222 221 220 220 220 220 220 219 219 219 219 220 221 222 222 223
308 309 310 310 310 310 310 310 309 308 308 307 307 306 306 306 305 305 305 305 306 306 305 304 303 301 299 296 294 292 293 293 293 291 286 281 279 278 279 278 276 274 271 268 265 264 263 263 264 264 264 264 264 263 259 252 244 236 230 227 225 225 224 224 224 223 223 222 221 221 220 220 219 219 219 219 219 219 219 219 219 220 221 222 223 224
309 309 310 310 310 309 309 308 308 308 307 307 307 307 307 307 307 307 307 307 307 306 305 304 302 299 297 294 292 291 291 292 291 289 285 280 277 276 276 276 275 274 273 271 270 268 266 265 264 264 264 264 263 262 259 253 245 237 230 227 225 224 223 223 223 222 222 221 221 220 219 218 218 218 219 219 219 219 218 219 219 220 221 222 223 224
309 310 310 309 309 308 308 308 308 308 308 308 309 309 309 309 309 309 308 308 307 307 305 304 301 298 295 292 290 289 289 290 289 287 283 278 276 274 273 271 271 271 271 271 272 272 272 269 268 267 266 266 264 261 258 253 246 238 231 227 224 223 222 222 221 221 221 221 220 219 218 217 217 217 218 218 218 218 218 219 219 220 221 222 224 224
309 309 309 309 308 308 307 308 308 309 310 310 310 311 311 311 310 310 309 308 308 307 305 303 301 297 294 290 288 287 287 289 288 285 282 279 276 273 270 267 266 265 264 265 267 269 271 272 272 271 270 268 266 262 257 252 246 239 231 225 222 221 221 220 220 220 220 220 220 219 218 217 216 217 218 218 218 218 218 218 219 220 221 222 224 225
308 308 308 308 308 308 308 309 310 311 311 312 312 312 312 312 311 310 309 309 308 307 305 303 300 297 293 290 287 286 287 287 287 285 282 280 277 274 270 267 264 261 258 257 258 260 263 268 271 272 272 270 267 263 259 253 247 239 230 224 221 220 219 218 218 217 217 219 220 219 217 216 215 216 217 218 218 217 217 218 219 220 221 222 223 224
308 308 308 308 309 309 310 311 312 313 313 314 314 314 313 313 312 311 310 309 309 307 306 303 300 297 294 291 288 286 286 285 285 284 283 281 278 276 272 269 265 261 256 254 252 251 253 257 262 266 269 269 267 264 260 255 249 240 229 222 218 218 217 216 216 215 216 217 219 218 216 214 214 215 217 217 217 216 217 217 218 219 220 220 221 223
308 309 309 310 311 312 312 314 314 315 315 315 315 315 314 313 312 311 311 311 310 309 307 305 302 299 296 293 290 287 285 284 283 282 281 280 279 277 275 272 268 263 258 254 250 247 246 247 250 255 260 264 266 265 261 255 248 238 228 220 217 216 216 215 215 214 214 216 218 217 214 212 211 213 215 216 216 215 216 216 217 217 217 218 219 221
310 311 312 312 313 314 315 316 316 317 316 316 316 315 315 314 313 313 313 313 312 311 310 308 305 302 299 296 292 289 286 284 282 281 279 278 278 277 275 274 271 266 261 255 251 247 244 242 243 245 249 254 259 262 261 255 246 235 226 219 216 214 214 214 213 213 213 215 217 216 212 209 209 211 212 213 213 213 214 215 216 216 215 216 217 218
313 314 314 314 315 316 317 318 318 318 318 317 317 316 316 316 316 316 316 316 315 314 313 310 307 304 301 298 295 292 289 286 283 280 278 277 276 275 274 273 272 269 263 257 251 246 243 241 240 241 242 245 250 255 257 253 244 234 225 218 214 211 211 212 212 212 212 214 216 215 211 208 208 208 208 209 210 211 212 214 215 215 215 215 216 217
315 316 316 317 318 319 319 320 320 319 319 318 318 318 318 318 318 318 318 318 317 316 314 311 308 304 301 298 296 294 291 288 284 281 278 276 275 273 273 272 271 268 264 258 252 246 242 240 239 240 240 242 244 248 249 247 241 232 224 218 213 210 210 211 211 212 212 213 215 215 212 209 208 206 203 204 207 209 210 212 214 214 214 215 216 216
318 318 319 320 321 321 322 321 321 321 320 320 319 319 320 320 320 320 320 319 318 317 315 312 308 305 302 299 297 295 292 289 286 283 279 276 274 272 271 270 269 267 263 258 252 247 242 239 239 239 240 241 243 244 245 242 237 229 222 215 212 210 209 209 210 211 212 214 216 216 214 211 208 205 201 202 204 207 209 211 212 213 214 215 215 216
320 321 322 323 323 323 323 323 323 322 321 321 321 321 321 322 322 322 321 321 319 318 316 313 309 306 303 300 298 297 294 292 289 285 281 277 274 271 269 268 267 265 262 258 253 248 243 240 239 239 240 241 242 243 242 239 233 226 218 213 210 210 209 208 209 211 212 213 216 217 214 211 209 207 203 203 204 206 207 209 211 212 213 213 214 215
324 324 325 325 325 325 325 324 324 323 322 322 322 322 323 323 323 323 323 322 321 319 316 313 310 306 302 300 299 298 296 294 291 288 284 280 276 272 268 266 264 263 260 256 252 247 244 241 239 239 239 240 241 241 240 236 230 223 215 211 210 210 209 209 210 211 212 213 214 214 212 209 209 209 208 207 206 205 205 207 208 209 210 212 213 214
326 327 327 327 327 327 326 326 325 324 324 323 323 324 324 325 325 325 324 323 321 319 316 312 309 305 301 300 299 298 296 294 292 289 286 283 278 274 269 265 262 260 258 255 250 246 243 242 240 239 238 239 240 239 236 232 227 220 213 209 209 209 209 209 211 212 213 212 212 211 209 209 210 212 212 211 208 204 202 204 205 206 208 210 212 214
328 328 328 328 328 328 327 327 326 325 325 325 325 325 326 326 326 326 325 324 321 319 315 312 308 304 301 299 299 297 295 293 290 288 285 282 278 274 270 265 261 258 255 252 248 245 241 240 239 238 238 238 238 237 232 227 222 217 211 208 208 209 209 210 210 212 214 212 210 209 208 210 213 216 215 212 208 203 200 201 203 205 207 210 212 214
330 330 330 330 329 329 328 327 327 326 326 326 326 326 327 327 327 326 326 324 322 319 316 313 309 305 303 301 300 299 296 292 289 286 284 280 277 273 269 265 260 256 252 248 245 242 240 238 237 237 237 236 236 233 229 223 219 214 209 207 207 209 210 210 210 212 214 213 210 209 210 212 215 217 216 214 210 205 200 200 201 204 207 210 212 214
331 331 331 331 330 330 329 328 328 327 327 327 327 327 328 328 328 327 327 326 324 321 318 314 311 308 305 303 302 300 297 292 288 285 282 279 276 272 268 263 259 254 251 246 243 240 238 237 237 236 235 234 233 230 225 219 215 211 208 207 207 209 209 209 209 212 215 214 212 210 211 214 216 216 213 212 210 205 200 200 202 204 206 209 211 213
333 333 333 332 331 330 329 329 329 329 329 329 329 328 328 328 329 329 328 327 326 323 320 316 313 310 307 305 304 302 298 294 288 284 281 278 274 269 265 260 255 251 248 245 241 239 237 237 237 235 233 231 229 225 221 215 210 208 207 206 206 207 208 207 208 211 214 214 212 211 212 215 216 213 209 209 206 202 200 201 202 204 205 207 209 210
334 334 333 332 331 331 330 330 330 331 330 330 329 329 329 330 330 330 330 329 327 324 321 318 315 312 310 308 307 304 301 296 290 285 280 276 271 266 260 255 249 245 243 241 239 237 236 236 235 232 228 224 221 218 215 210 206 204 205 204 205 206 206 206 207 210 212 211 210 210 212 215 215 210 206 204 201 199 199 200 202 203 205 205 207 208
Height
2984 2983 2982 2981 2979 2978 2976 2976 2974 2973 2972 2971 2971 2970 2969 2968 2968 2967 2966 2966 2965 2964 2963 2962 2961 2960 2960 2959 2959 2959 2959 2959 2959 2959 2959 2959 2959 2959 2959 2961 2962 2964 2965 2966 2967 2968 2968 2969 2969 2970 2971 2972 2973 2974 2976 2977 2978 2979 2980 2982 2984 2985 2987 2988 2990 2993 2995 2997 2998 3000 3002 3003 3005 3007 3009 3012 3014 3015 3017 3019 3020 3021 3023 3024 3026 3028
2981 2980 2978 2977 2975 2974 2972 2972 2971 2969 2967 2966 2966 2965 2964 2963 2962 2961 2961 2960 2959 2958 2958 2956 2955 2955 2954 2953 2953 2953 2953 2952 2952 2952 2952 2952 2952 2953 2953 2953 2954 2955 2957 2958 2960 2961 2962 2962 2963 2964 2965 2966 2967 2968 2969 2970 2972 2973 2974 2976 2978 2979 2981 2982 2984 2987 2989 2991 2993 2995 2997 2999 3001 3003 3005 3008 3009 3011 3012 3014 3016 3017 3018 3020 3022 3024
2978 2976 2975 2973 2972 2970 2969 2968 2967 2965 2963 2962 2961 2960 2959 2958 2957 2956 2955 2955 2954 2953 2952 2951 2950 2949 2948 2947 2946 2946 2946 2946 2946 2945 2945 2946 2946 2946 2946 2946 2947 2947 2948 2950 2952 2953 2954 2956 2956 2957 2958 2959 2960 2961 2963 2964 2965 2967 2968 2969 2971 2973 2974 2976 2978 2980 2983 2985 2988 2989 2991 2994 2996 2998 3001 3003 3005 3007 3008 3010 3012 3014 3015 3016 3017 3019
2974 2973 2971 2970 2968 2967 2965 2964 2962 2961 2960 2958 2957 2956 2955 2953 2952 2951 2950 2949 2948 2947 2946 2945 2944 2943 2942 2941 2940 2940 2939 2939 2939 2938 2938 2938 2939 2939 2939 2939 2940 2940 2941 2942 2944 2945 2947 2948 2949 2950 2951 2953 2953 2955 2956 2958 2959 2960 2962 2963 2965 2966 2968 2970 2972 2974 2977 2979 2981 2983 2986 2988 2990 2993 2995 2998 3000 3002 3003 3005 3008 3010 3012 3013 3014 3015
2971 2969 2968 2966 2965 2963 2962 2960 2958 2957 2956 2954 2953 2951 2950 2948 2947 2946 2944 2943 2943 2941 2940 2939 2938 2937 2936 2934 2933 2933 2933 2932 2932 2931 2931 2931 2932 2932 2932 2933 2933 2933 2934 2935 2936 2937 2939 2941 2942 2943 2944 2946 2947 2948 2949 2951 2952 2954 2955 2957 2958 2960 2962 2964 2966 2968 2970 2973 2975 2978 2980 2983 2985 2987 2990 2992 2994 2997 2999 3001 3003 3006 3009 3011 3011 3012
2968 2966 2964 2963 2961 2959 2958 2956 2955 2953 2952 2950 2948 2947 2945 2943 2942 2941 2939 2938 2937 2935 2934 2933 2932 2931 2930 2929 2928 2927 2927 2926 2925 2925 2924 2924 2924 2925 2925 2926 2926 2927 2927 2928 2929 2930 2931 2933 2934 2936 2937 2938 2940 2941 2942 2944 2945 2947 2949 2950 2952 2954 2956 2958 2960 2962 2964 2967 2969 2972 2974 2977 2979 2982 2984 2986 2989 2992 2995 2996 2998 3001 3004 3007 3008 3009
2964 2963 2961 2959 2957 2955 2954 2953 2951 2950 2948 2946 2944 2942 2941 2939 2937 2936 2934 2933 2931 2930 2928 2927 2926 2925 2924 2923 2922 2922 2921 2920 2919 2918 2918 2918 2918 2918 2918 2918 2919 2920 2920 2921 2922 2923 2923 2925 2927 2928 2929 2931 2932 2934 2935 2937 2938 2940 2942 2944 2946 2948 2950 2952 2954 2956 2958 2961 2963 2966 2969 2971 2974 2976 2978 2981 2984 2987 2990 2992 2994 2996 2998 3001 3004 3006
2960 2959 2958 2955 2953 2951 2950 2949 2948 2946 2944 2941 2939 2937 2936 2934 2933 2932 2930 2928 2927 2925 2923 2922 2920 2920 2919 2918 2917 2916 2915 2915 2914 2913 2913 2912 2912 2912 2912 2912 2912 2913 2913 2914 2915 2916 2916 2918 2919 2920 2922 2923 2925 2927 2928 2930 2932 2933 2935 2937 2939 2941 2943 2945 2948 2950 2953 2955 2958 2960 2963 2966 2968 2970 2973 2975 2978 2981 2984 2987 2989 2992 2993 2995 2998 3000
2956 2955 2953 2952 2949 2947 2945 2945 2944 2943 2940 2938 2935 2933 2931 2930 2928 2927 2926 2924 2923 2921 2919 2917 2915 2914 2914 2913 2913 2912 2911 2910 2909 2908 2908 2907 2906 2906 2905 2905 2905 2906 2906 2907 2908 2908 2909 2910 2911 2913 2914 2916 2918 2919 2921 2923 2925 2927 2929 2931 2933 2935 2937 2939 2941 2944 2946 2949 2952 2954 2957 2960 2963 2965 2968 2970 2973 2976 2978 2981 2984 2987 2989 2991 2993 2995
2953 2951 2949 2947 2945 2944 2942 2940 2939 2938 2937 2934 2932 2929 2928 2926 2923 2921 2920 2919 2918 2917 2915 2913 2911 2909 2908 2908 2908 2907 2906 2905 2904 2903 2903 2902 2901 2900 2900 2899 2899 2899 2899 2900 2900 2901 2902 2903 2904 2905 2907 2908 2910 2912 2914 2916 2918 2920 2922 2924 2926 2928 2930 2933 2935 2938 2940 2943 2946 2949 2951 2954 2957 2960 2962 2965 2968 2971 2973 2976 2979 2982 2985 2987 2989 2991
2949 2947 2945 2943 2941 2940 2938 2937 2935 2934 2933 2930 2928 2926 2924 2922 2920 2917 2914 2913 2912 2912 2910 2909 2907 2905 2903 2903 2902 2902 2901 2900 2898 2898 2898 2897 2896 2895 2894 2893 2893 2893 2893 2893 2893 2894 2895 2896 2897 2898 2899 2901 2903 2905 2907 2909 2911 2913 2916 2918 2920 2922 2924 2926 2929 2931 2934 2937 2940 2943 2946 2948 2951 2954 2957 2960 2963 2965 2968 2971 2974 2978 2980 2983 2985 2987
2945 2943 2941 2939 2937 2936 2935 2933 2931 2929 2928 2926 2924 2922 2920 2918 2916 2913 2911 2908 2907 2906 2905 2903 2902 2901 2900 2898 2897 2896 2895 2894 2893 2892 2891 2891 2890 2890 2888 2888 2887 2886 2886 2886 2886 2887 2888 2888 2890 2891 2892 2893 2895 2898 2900 2902 2904 2907 2909 2911 2913 2916 2918 2920 2923 2925 2928 2931 2934 2937 2940 2943 2946 2948 2952 2954 2958 2960 2963 2966 2970 2973 2976 2978 2981 2983
2941 2939 2937 2935 2933 2932 2931 2929 2928 2925 2924 2923 2921 2918 2916 2913 2912 2910 2907 2904 2902 2901 2900 2898 2896 2896 2895 2895 2893 2891 2889 2888 2886 2885 2885 2884 2884 2883 2883 2882 2881 2880 2880 2880 2880 2880 2881 2882 2883 2883 2885 2886 2888 2890 2893 2896 2898 2900 2903 2905 2907 2909 2912 2914 2917 2919 2922 2925 2928 2931 2934 2937 2940 2943 2946 2949 2952 2955 2958 2962 2965 2968 2971 2973 2976 2978
2937 2935 2933 2931 2930 2928 2927 2926 2924 2922 2920 2919 2917 2914 2912 2909 2907 2905 2903 2900 2898 2897 2896 2893 2891 2890 2890 2890 2889 2887 2884 2882 2880 2878 2878 2877 2878 2878 2877 2876 2875 2874 2874 2874 2874 2874 2875 2876 2876 2877 2878 2879 2881 2883 2886 2889 2892 2894 2897 2899 2901 2903 2906 2908 2911 2913 2916 2918 2922 2925 2928 2931 2934 2938 2941 2944 2947 2950 2953 2957 2960 2963 2966 2968 2971 2974
2933 2931 2929 2927 2926 2925 2924 2922 2920 2918 2916 2915 2913 2910 2908 2905 2903 2901 2899 2896 2893 2892 2891 2888 2886 2884 2885 2885 2884 2883 2880 2877 2874 2872 2871 2870 2871 2872 2872 2870 2868 2868 2868 2868 2868 2868 2868 2869 2870 2870 2871 2873 2875 2877 2879 2882 2885 2888 2890 2893 2895 2898 2900 2903 2905 2908 2910 2913 2916 2919 2922 2925 2928 2932 2935 2938 2942 2945 2948 2951 2953 2956 2960 2963 2967 2969
2929 2928 2925 2924 2922 2921 2920 2919 2917 2914 2912 2911 2909 2906 2904 2901 2898 2897 2895 2892 2889 2887 2885 2883 2880 2878 2878 2879 2881 2879 2876 2872 2868 2866 2864 2863 2864 2865 2866 2864 2862 2861 2862 2863 2862 2862 2863 2863 2864 2864 2865 2867 2869 2871 2873 2876 2878 2881 2884 2887 2889 2892 2894 2897 2899 2902 2904 2907 2910 2913 2916 2919 2923 2926 2929 2933 2936 2939 2943 2946 2948 2951 2954 2958 2962 2965
2926 2924 2923 2921 2919 2918 2917 2915 2913 2911 2909 2907 2904 2902 2900 2897 2895 2893 2890 2888 2885 2883 2881 2878 2876 2873 2871 2872 2874 2875 2873 2868 2863 2860 2859 2857 2857 2859 2860 2859 2857 2855 2856 2856 2856 2856 2857 2858 2858 2858 2859 2860 2862 2864 2867 2869 2872 2875 2878 2880 2883 2885 2888 2890 2893 2896 2898 2902 2904 2907 2910 2914 2917 2921 2924 2927 2930 2934 2937 2941 2943 2946 2949 2953 2957 2960
2923 2922 2920 2918 2916 2914 2913 2912 2910 2908 2906 2903 2900 2898 2895 2893 2891 2889 2886 2884 2882 2879 2876 2874 2872 2870 2868 2865 2866 2868 2869 2864 2858 2855 2853 2852 2851 2853 2854 2853 2851 2849 2849 2850 2850 2851 2851 2852 2852 2853 2854 2855 2856 2858 2860 2862 2864 2867 2870 2873 2876 2879 2882 2884 2887 2890 2893 2895 2898 2901 2904 2908 2911 2915 2918 2922 2925 2928 2932 2936 2938 2941 2944 2948 2952 2955
2920 2919 2918 2916 2913 2911 2910 2909 2907 2905 2902 2899 2896 2894 2891 2889 2888 2886 2883 2881 2878 2876 2873 2870 2868 2866 2864 2862 2861 2862 2863 2859 2854 2850 2848 2846 2845 2846 2848 2848 2846 2843 2843 2843 2844 2845 2846 2846 2846 2847 2848 2849 2851 2852 2854 2857 2859 2861 2863 2866 2869 2872 2875 2878 2882 2885 2887 2889 2893 2895 2898 2902 2905 2909 2913 2916 2919 2923 2926 2930 2933 2936 2939 2943 2947 2950
2918 2916 2916 2914 2911 2908 2906 2906 2904 2903 2899 2896 2893 2890 2888 2885 2884 2882 2879 2877 2875 2872 2869 2867 2864 2861 2860 2858 2856 2856 2856 2854 2849 2845 2842 2840 2839 2840 2842 2842 2840 2838 2837 2837 2838 2840 2840 2840 2840 2841 2843 2844 2845 2847 2848 2851 2853 2856 2858 2861 2863 2866 2868 2872 2876 2880 2883 2885 2887 2890 2893 2896 2899 2903 2907 2910 2914 2917 2921 2924 2928 2932 2935 2939 2942 2945
2915 2913 2913 2912 2909 2906 2903 2902 2901 2899 2897 2893 2889 2886 2884 2882 2879 2877 2875 2873 2871 2868 2866 2863 2860 2858 2856 2853 2851 2850 2850 2848 2844 2840 2837 2835 2833 2833 2835 2835 2834 2832 2831 2831 2833 2834 2835 2834 2834 2835 2836 2838 2840 2842 2843 2845 2848 2850 2853 2856 2858 2861 2863 2866 2868 2871 2874 2877 2880 2884 2887 2890 2894 2897 2901 2905 2908 2912 2916 2919 2923 2927 2930 2933 2936 2939
2913 2911 2910 2909 2907 2903 2900 2898 2897 2896 2893 2890 2886 2883 2880 2878 2876 2873 2871 2869 2867 2864 2861 2858 2856 2854 2852 2848 2846 2844 2844 2842 2839 2836 2832 2829 2826 2827 2830 2830 2828 2826 2825 2825 2827 2829 2829 2829 2829 2829 2831 2833 2834 2836 2838 2839 2842 2845 2847 2850 2853 2855 2859 2861 2863 2865 2867 2870 2874 2878 2881 2885 2888 2892 2896 2899 2903 2907 2910 2914 2918 2921 2925 2928 2930 2933
2911 2908 2907 2906 2903 2901 2898 2895 2893 2891 2889 2887 2883 2880 2877 2875 2872 2869 2866 2864 2862 2859 2857 2854 2851 2849 2847 2844 2841 2839 2838 2837 2834 2831 2828 2823 2819 2820 2825 2825 2823 2821 2819 2820 2822 2823 2824 2824 2824 2824 2825 2827 2829 2831 2833 2834 2836 2839 2842 2844 2847 2850 2853 2856 2858 2861 2863 2866 2869 2872 2876 2879 2883 2887 2890 2894 2898 2902 2905 2909 2913 2916 2920 2923 2926 2929
2908 2906 2904 2902 2900 2897 2894 2892 2889 2887 2885 2882 2879 2876 2873 2871 2868 2865 2862 2860 2857 2854 2851 2849 2846 2843 2840 2839 2836 2834 2833 2832 2830 2827 2823 2818 2815 2815 2818 2819 2818 2815 2814 2815 2817 2818 2818 2818 2818 2819 2820 2821 2823 2825 2828 2829 2831 2833 2836 2839 2842 2845 2848 2850 2853 2856 2859 2861 2863 2866 2870 2874 2878 2881 2885 2888 2893 2896 2900 2904 2908 2912 2915 2919 2922 2926
2905 2903 2900 2898 2896 2894 2891 2888 2886 2883 2880 2878 2874 2872 2869 2866 2863 2860 2858 2855 2853 2850 2847 2843 2839 2836 2833 2833 2830 2827 2827 2827 2826 2823 2819 2814 2811 2809 2812 2813 2813 2810 2809 2810 2812 2813 2813 2813 2813 2814 2815 2816 2818 2820 2822 2824 2826 2828 2830 2834 2837 2840 2843 2846 2849 2851 2853 2855 2858 2861 2864 2868 2873 2876 2880 2883 2887 2891 2895 2899 2903 2907 2911 2914 2918 2922
2901 2899 2897 2895 2892 2890 2888 2885 2882 2879 2877 2874 2871 2868 2865 2862 2859 2856 2853 2851 2849 2847 2843 2839 2834 2831 2829 2827 2824 2822 2821 2821 2820 2818 2816 2813 2808 2805 2806 2808 2807 2806 2804 2805 2807 2808 2808 2808 2808 2809 2811 2811 2813 2815 2817 2819 2821 2823 2826 2828 2832 2834 2838 2841 2844 2846 2848 2850 2853 2856 2858 2863 2867 2871 2875 2878 2882 2886 2890 2894 2898 2902 2906 2910 2914 2918
2898 2896 2893 2891 2889 2886 2884 2881 2878 2876 2873 2871 2868 2865 2862 2859 2855 2851 2849 2848 2846 2843 2839 2834 2830 2826 2824 2823 2820 2818 2817 2816 2815 2814 2813 2810 2807 2803 2802 2803 2803 2802 2801 2801 2802 2803 2803 2803 2803 2804 2806 2807 2808 2810 2812 2814 2816 2818 2821 2823 2827 2830 2833 2836 2838 2840 2843 2846 2849 2851 2853 2857 2862 2866 2870 2874 2877 2881 2885 2889 2893 2898 2902 2906 2909 2913
2894 2892 2890 2887 2885 2882 2879 2877 2874 2872 2869 2867 2864 2862 2859 2856 2851 2847 2844 2844 2842 2838 2834 2830 2826 2822 2819 2816 2814 2813 2812 2811 2810 2809 2809 2808 2804 2800 2798 2800 2800 2799 2798 2797 2797 2798 2798 2798 2799 2800 2801 2802 2803 2805 2807 2809 2811 2813 2816 2819 2822 2825 2828 2831 2834 2837 2839 2843 2846 2848 2850 2853 2856 2860 2864 2868 2872 2876 2880 2884 2889 2893 2897 2901 2904 2907
2890 2888 2886 2883 2881 2878 2875 2873 2870 2868 2865 2863 2861 2858 2855 2852 2848 2844 2841 2839 2837 2833 2829 2825 2822 2818 2814 2810 2808 2806 2805 2805 2805 2806 2806 2803 2799 2796 2796 2797 2797 2796 2796 2794 2793 2793 2794 2794 2795 2796 2797 2798 2799 2800 2802 2804 2807 2809 2812 2815 2818 2821 2824 2827 2830 2833 2836 2839 2842 2845 2847 2849 2852 2855 2859 2863 2867 2871 2876 2880 2884 2889 2893 2896 2899 2901
2886 2884 2882 2879 2877 2874 2871 2868 2866 2863 2861 2859 2857 2854 2851 2848 2845 2841 2838 2835 2833 2829 2824 2820 2817 2813 2810 2806 2802 2799 2798 2798 2801 2802 2801 2799 2794 2792 2793 2793 2793 2793 2793 2793 2792 2790 2789 2790 2791 2793 2793 2794 2795 2796 2798 2800 2803 2805 2808 2810 2813 2816 2819 2823 2826 2829 2832 2835 2838 2841 2843 2846 2849 2852 2856 2859 2863 2867 2871 2875 2880 2884 2887 2890 2893 2897
2882 2880 2877 2875 2873 2870 2867 2864 2862 2859 2857 2855 2853 2850 2847 2844 2841 2838 2834 2831 2828 2824 2819 2815 2812 2808 2806 2803 2798 2794 2791 2793 2796 2798 2798 2795 2791 2788 2790 2789 2788 2788 2790 2791 2791 2789 2787 2786 2788 2789 2790 2791 2791 2792 2793 2796 2798 2801 2803 2806 2809 2812 2815 2818 2822 2825 2828 2831 2834 2837 2839 2842 2845 2849 2852 2856 2859 2863 2867 2871 2875 2879 2882 2885 2888 2891
2878 2875 2873 2871 2868 2866 2863 2861 2858 2855 2853 2850 2848 2845 2843 2839 2836 2833 2829 2826 2823 2819 2815 2811 2807 2803 2801 2798 2795 2791 2788 2788 2791 2794 2794 2791 2788 2785 2787 2786 2785 2784 2785 2787 2788 2787 2785 2783 2784 2786 2787 2788 2788 2788 2790 2792 2794 2796 2799 2802 2804 2807 2811 2814 2818 2821 2824 2827 2830 2832 2835 2838 2841 2845 2848 2852 2855 2859 2863 2867 2870 2874 2877 2880 2883 2886
2873 2871 2869 2867 2864 2862 2859 2857 2854 2852 2849 2846 2843 2841 2838 2834 2831 2828 2824 2821 2818 2815 2811 2807 2802 2799 2796 2793 2790 2787 2784 2785 2787 2788 2789 2788 2784 2783 2783 2783 2782 2781 2781 2782 2782 2782 2781 2780 2780 2781 2783 2783 2784 2785 2786 2788 2790 2793 2796 2798 2801 2803 2807 2811 2814 2817 2820 2823 2826 2829 2832 2834 2838 2841 2844 2848 2851 2855 2858 2862 2866 2869 2872 2875 2878 2881
2869 2868 2865 2863 2860 2858 2855 2853 2851 2848 2845 2842 2839 2836 2833 2830 2826 2823 2820 2816 2813 2810 2807 2803 2799 2795 2791 2788 2785 2782 2780 2781 2782 2784 2784 2783 2782 2780 2779 2779 2779 2778 2778 2778 2777 2777 2777 2776 2777 2778 2778 2779 2780 2781 2783 2784 2787 2789 2792 2794 2797 2800 2803 2807 2810 2813 2817 2819 2823 2826 2828 2831 2834 2838 2841 2844 2847 2851 2855 2858 2862 2865 2868 2871 2874 2877
2866 2864 2862 2859 2857 2854 2852 2849 2847 2844 2841 2838 2835 2832 2828 2825 2822 2818 2815 2812 2808 2805 2802 2798 2795 2792 2788 2785 2781 2778 2776 2777 2778 2779 2780 2779 2778 2777 2777 2776 2776 2776 2776 2775 2774 2774 2774 2773 2773 2774 2775 2775 2776 2777 2779 2781 2783 2786 2788 2791 2793 2796 2800 2803 2807 2810 2813 2817 2820 2823 2825 2828 2831 2834 2838 2840 2844 2848 2851 2854 2858 2861 2864 2867 2870 2873
2862 2860 2858 2856 2853 2850 2848 2845 2842 2839 2836 2833 2830 2827 2824 2821 2818 2814 2811 2808 2804 2800 2797 2793 2790 2787 2784 2782 2778 2775 2772 2772 2774 2774 2774 2774 2774 2774 2773 2772 2772 2773 2773 2773 2772 2772 2772 2771 2771 2771 2772 2772 2772 2773 2775 2777 2780 2782 2784 2787 2790 2793 2796 2800 2804 2808 2811 2814 2817 2819 2822 2824 2828 2831 2834 2838 2841 2844 2848 2851 2854 2858 2861 2864 2868 2870
2859 2857 2854 2852 2849 2846 2843 2841 2838 2835 2831 2828 2825 2822 2819 2816 2813 2810 2806 2803 2799 2796 2793 2789 2785 2782 2779 2777 2774 2772 2769 2768 2769 2769 2769 2769 2769 2769 2768 2767 2767 2768 2770 2769 2769 2770 2770 2770 2769 2769 2769 2769 2769 2770 2772 2774 2777 2779 2781 2784 2787 2790 2793 2796 2800 2805 2808 2811 2813 2815 2818 2822 2825 2828 2831 2835 2838 2841 2845 2848 2852 2855 2858 2861 2865 2868
2856 2853 2851 2848 2846 2843 2839 2836 2833 2830 2827 2823 2820 2817 2814 2811 2808 2805 2802 2798 2795 2791 2788 2784 2781 2778 2775 2773 2770 2768 2766 2765 2764 2764 2764 2764 2764 2764 2763 2763 2763 2763 2764 2764 2765 2766 2767 2768 2768 2767 2767 2766 2767 2768 2769 2771 2773 2775 2778 2781 2784 2787 2790 2793 2797 2800 2804 2807 2810 2813 2815 2818 2822 2825 2828 2832 2835 2838 2842 2845 2848 2852 2856 2859 2862 2865
2853 2850 2848 2845 2842 2838 2835 2832 2829 2826 2822 2819 2816 2813 2810 2807 2804 2800 2797 2793 2789 2786 2783 2779 2776 2773 2770 2768 2766 2764 2763 2761 2760 2760 2759 2759 2759 2759 2758 2758 2758 2758 2759 2760 2761 2761 2762 2763 2764 2765 2765 2765 2765 2765 2766 2768 2770 2772 2775 2778 2781 2784 2788 2791 2794 2797 2800 2803 2807 2809 2812 2815 2819 2823 2825 2828 2831 2833 2837 2839 2843 2847 2851 2856 2860 2863
2849 2847 2844 2841 2838 2835 2831 2828 2825 2821 2818 2815 2812 2809 2806 2803 2799 2795 2792 2788 2784 2780 2777 2773 2770 2768 2765 2763 2762 2760 2759 2758 2756 2756 2755 2754 2754 2754 2754 2753 2753 2754 2755 2756 2757 2757 2758 2758 2758 2759 2761 2763 2763 2763 2764 2765 2767 2770 2773 2776 2778 2781 2785 2788 2791 2794 2797 2800 2803 2806 2808 2812 2815 2819 2822 2824 2827 2829 2833 2836 2839 2843 2847 2851 2854 2858
2846 2843 2840 2837 2834 2831 2828 2824 2821 2818 2814 2811 2808 2805 2802 2798 2794 2790 2786 2782 2779 2775 2772 2769 2766 2763 2760 2758 2757 2756 2754 2753 2753 2752 2751 2750 2750 2750 2750 2749 2749 2749 2750 2751 2752 2753 2753 2754 2754 2755 2756 2758 2760 2760 2761 2762 2765 2767 2770 2772 2775 2778 2782 2785 2788 2791 2793 2797 2800 2803 2804 2808 2811 2814 2818 2822 2824 2826 2830 2833 2837 2840 2844 2847 2849 2852
2843 2839 2836 2833 2830 2827 2823 2820 2817 2814 2810 2807 2804 2800 2797 2794 2790 2785 2781 2777 2774 2771 2768 2765 2762 2759 2756 2754 2753 2752 2751 2749 2748 2748 2747 2747 2746 2746 2746 2745 2745 2746 2746 2746 2747 2748 2748 2750 2750 2751 2753 2754 2756 2757 2758 2760 2762 2765 2767 2769 2773 2776 2779 2782 2785 2788 2791 2793 2797 2800 2801 2804 2807 2811 2814 2818 2822 2824 2828 2831 2834 2838 2841 2844 2847 2849
2839 2836 2833 2829 2826 2823 2819 2816 2813 2809 2806 2803 2800 2797 2793 2790 2786 2782 2778 2773 2770 2767 2764 2762 2759 2756 2753 2750 2748 2748 2747 2746 2745 2744 2743 2743 2742 2742 2742 2742 2742 2742 2743 2743 2743 2743 2744 2746 2747 2748 2749 2752 2753 2754 2754 2757 2759 2762 2765 2768 2771 2774 2777 2779 2783 2785 2788 2791 2794 2796 2797 2800 2804 2808 2812 2816 2820 2823 2826 2829 2832 2835 2838 2841 2844 2847
2835 2832 2828 2825 2822 2818 2815 2812 2809 2806 2802 2799 2796 2793 2790 2787 2783 2778 2774 2770 2766 2763 2761 2758 2756 2753 2750 2747 2745 2743 2743 2742 2741 2740 2740 2739 2739 2738 2738 2738 2738 2738 2739 2739 2739 2739 2740 2742 2743 2744 2747 2749 2751 2751 2752 2754 2757 2760 2763 2766 2768 2771 2773 2776 2779 2782 2784 2788 2792 2794 2794 2798 2802 2805 2808 2814 2818 2821 2823 2826 2829 2833 2836 2839 2842 2846
2832 2828 2825 2822 2819 2815 2812 2809 2805 2802 2799 2796 2793 2789 2786 2783 2779 2775 2771 2767 2763 2760 2758 2755 2753 2750 2746 2743 2742 2740 2738 2737 2737 2736 2736 2735 2735 2735 2735 2735 2735 2735 2735 2735 2736 2736 2737 2738 2740 2742 2744 2746 2748 2748 2750 2752 2755 2758 2761 2763 2766 2768 2771 2774 2777 2779 2781 2785 2789 2792 2793 2797 2799 2802 2806 2811 2815 2818 2820 2823 2827 2830 2833 2837 2841 2844
2829 2825 2822 2819 2816 2813 2809 2806 2802 2799 2795 2793 2789 2786 2783 2779 2776 2772 2769 2765 2761 2758 2755 2753 2751 2748 2743 2741 2739 2737 2735 2734 2733 2732 2732 2731 2731 2731 2731 2731 2731 2732 2732 2732 2733 2733 2734 2735 2737 2739 2742 2743 2744 2745 2747 2749 2753 2756 2758 2762 2764 2767 2769 2772 2774 2777 2779 2782 2786 2790 2793 2794 2796 2799 2803 2809 2813 2815 2818 2821 2824 2828 2831 2834 2838 2841
2826 2823 2819 2816 2813 2809 2806 2803 2799 2796 2792 2789 2786 2783 2780 2776 2773 2769 2765 2762 2759 2756 2752 2750 2748 2745 2742 2739 2737 2735 2733 2731 2729 2728 2728 2728 2727 2727 2728 2728 2728 2728 2729 2729 2730 2730 2731 2733 2734 2737 2738 2740 2741 2743 2745 2748 2751 2754 2757 2760 2763 2764 2767 2769 2772 2774 2777 2780 2784 2788 2790 2792 2794 2797 2802 2807 2810 2813 2816 2819 2823 2826 2829 2833 2836 2838
2823 2820 2816 2813 2809 2806 2803 2800 2797 2793 2789 2786 2782 2779 2776 2773 2770 2766 2762 2759 2756 2753 2750 2747 2744 2742 2739 2737 2734 2733 2730 2728 2726 2725 2724 2724 2724 2724 2724 2724 2725 2726 2726 2726 2727 2728 2729 2730 2732 2733 2735 2737 2738 2740 2743 2746 2749 2752 2755 2758 2760 2762 2764 2767 2770 2773 2777 2778 2781 2784 2788 2790 2793 2796 2801 2805 2808 2810 2814 2818 2821 2824 2828 2830 2833 2837
2821 2817 2814 2810 2806 2803 2800 2797 2793 2790 2786 2783 2779 2775 2773 2770 2767 2764 2760 2756 2753 2750 2747 2744 2741 2738 2736 2733 2732 2730 2728 2725 2723 2722 2721 2721 2721 2721 2721 2721 2723 2723 2723 2724 2725 2725 2726 2728 2729 2731 2733 2734 2736 2738 2741 2744 2748 2751 2753 2756 2758 2760 2763 2766 2769 2772 2775 2777 2779 2783 2786 2789 2792 2796 2801 2804 2805 2808 2811 2815 2819 2822 2825 2828 2832 2835
2819 2815 2812 2808 2804 2801 2798 2794 2791 2787 2783 2779 2776 2772 2769 2766 2763 2760 2757 2753 2750 2747 2744 2742 2739 2736 2733 2730 2728 2726 2724 2722 2720 2719 2718 2718 2718 2718 2718 2719 2720 2721 2722 2723 2723 2724 2725 2726 2727 2728 2730 2733 2735 2737 2740 2743 2746 2749 2752 2754 2756 2759 2762 2765 2768 2770 2773 2776 2779 2782 2786 2788 2792 2796 2801 2802 2803 2806 2810 2813 2817 2820 2823 2826 2829 2833
2816 2813 2809 2806 2803 2799 2795 2792 2788 2784 2781 2777 2773 2769 2765 2762 2759 2756 2753 2750 2747 2744 2741 2739 2736 2733 2730 2728 2725 2723 2721 2719 2718 2716 2716 2715 2715 2715 2715 2716 2717 2719 2720 2721 2722 2723 2724 2724 2725 2727 2728 2731 2734 2736 2739 2742 2745 2748 2750 2753 2755 2758 2761 2764 2767 2769 2773 2776 2779 2782 2785 2787 2791 2795 2798 2800 2802 2805 2808 2811 2814 2817 2820 2824 2827 2830